GFSGBSN_925_rhum_024.txt.gz
RH
91 93 92 88 87 91 94 94 95 96 100 99 100 92 90 92 84 72 68 63 62 58 60 65 60 51 43 36 28 26 22 26 28 26 26 23 25 26 26 22 19 22 18 17 18 50 46
90 92 91 90 88 90 88 79 74 84 89 96 94 100 95 92 91 78 72 64 60 57 62 71 67 58 62 19 23 33 25 26 25 26 26 23 25 25 25 27 20 20 20 25 36 44 43
90 88 92 87 88 92 92 87 82 68 70 90 95 100 100 96 91 85 71 66 61 57 63 74 75 74 75 27 26 31 29 24 22 22 25 21 23 23 23 26 22 26 22 29 40 42 44
82 86 85 90 94 84 90 95 87 83 71 71 95 95 98 100 97 92 76 69 61 60 64 77 76 83 63 15 23 22 28 27 24 20 22 18 20 24 25 25 26 22 20 35 31 36 38
93 78 82 81 84 88 85 87 88 86 78 70 74 94 91 100 100 95 81 68 52 59 80 78 73 86 56 21 25 17 21 26 24 21 19 19 21 26 27 29 29 27 23 30 34 34 38
91 99 77 79 81 82 84 84 91 87 84 72 59 80 92 89 100 96 83 67 55 83 84 83 83 54 28 22 26 26 27 30 24 24 24 24 32 32 36 32 36 30 26 29 32 28 36
81 92 99 88 76 79 82 82 82 85 87 82 69 68 87 87 100 99 80 52 63 76 79 50 30 28 24 29 32 25 28 31 24 25 32 28 33 38 29 31 26 28 25 24 24 22 33
85 75 88 98 96 78 78 84 87 79 84 85 82 75 90 89 100 99 84 76 60 68 79 60 57 46 36 39 47 30 24 24 28 33 29 34 38 29 27 29 29 28 26 28 26 20 23
81 78 72 81 96 95 73 77 81 80 80 84 84 70 72 88 100 97 83 60 69 73 83 50 56 56 49 44 44 38 23 24 26 32 33 37 26 24 27 27 28 27 26 27 29 24 32
85 81 81 82 83 92 96 74 73 77 80 84 87 75 62 100 100 83 69 67 73 77 65 47 60 54 48 45 32 27 20 19 22 26 34 32 27 26 24 27 27 25 26 26 30 27 36
89 86 81 73 79 89 84 93 68 75 79 84 83 81 61 100 82 88 75 62 68 72 60 29 56 36 40 29 24 26 18 18 24 24 27 26 27 28 27 24 23 25 27 30 29 35 36
94 90 87 84 78 77 86 91 82 69 73 77 78 81 66 100 100 69 75 60 80 79 61 28 40 42 35 26 23 22 20 16 20 22 28 27 23 28 27 24 24 24 24 35 44 45 53
97 95 91 87 84 79 79 78 99 73 68 74 76 81 77 99 89 77 78 75 100 93 33 31 44 32 31 31 27 23 27 27 29 32 32 27 24 26 27 25 28 32 36 47 45 61 57
98 98 96 90 87 83 82 77 86 89 65 72 74 81 77 91 93 78 84 93 98 63 43 43 34 32 32 28 27 28 28 31 23 26 39 38 37 27 26 26 29 34 38 57 45 63 43
98 99 98 95 89 86 83 86 60 98 68 78 72 83 89 88 100 82 94 98 72 61 50 42 30 36 36 30 30 28 33 34 27 27 30 41 34 32 33 33 28 32 36 35 68 77 71
98 98 99 99 94 89 84 84 84 98 72 72 82 96 87 85 99 87 98 80 69 51 50 51 43 37 45 40 31 33 37 30 26 27 25 34 33 38 35 33 31 29 37 42 57 50 55
97 98 97 99 98 92 86 82 86 90 80 71 92 92 66 93 99 99 89 76 59 51 48 58 61 57 40 40 37 38 38 24 27 28 28 40 32 33 40 38 34 36 37 45 47 61 58
95 100 100 100 100 95 87 86 88 80 82 75 84 93 92 88 97 82 76 67 55 52 47 55 56 63 56 38 39 37 35 28 29 38 34 41 45 54 36 31 32 30 35 42 63 44 78
84 85 90 100 100 97 92 89 87 79 83 87 93 86 84 81 91 89 66 63 61 52 51 57 62 57 44 36 33 38 36 28 41 33 41 45 44 57 40 32 36 35 37 43 53 64 66
88 92 92 97 100 99 95 91 88 87 86 82 95 93 94 88 56 65 71 69 72 58 54 53 61 57 51 48 42 35 37 40 48 35 54 39 49 39 38 33 40 40 39 45 46 70 60
91 89 93 87 100 100 96 92 88 97 86 79 97 85 75 90 86 72 60 60 72 67 54 55 62 66 54 56 41 45 49 50 44 62 46 39 40 42 37 36 41 39 34 47 44 44 49
92 93 90 93 100 99 95 94 97 94 88 78 97 90 79 87 69 73 72 67 69 63 66 67 62 55 61 68 49 39 49 52 47 49 48 49 46 40 45 46 42 41 39 43 41 39 41
96 94 90 90 100 99 92 96 99 92 87 88 92 87 92 69 75 77 69 64 62 57 57 53 53 53 59 51 42 43 44 53 48 52 57 51 67 62 50 54 45 62 50 44 43 40 39
98 92 93 87 100 100 95 90 95 90 90 72 78 82 93 85 78 71 60 61 61 59 61 52 53 57 46 51 49 49 57 69 69 72 57 65 62 70 75 65 64 41 38 36 41 38 37
93 92 92 93 100 97 98 89 82 91 80 70 72 84 96 94 73 70 65 65 59 55 60 57 51 42 44 59 65 64 76 56 63 73 72 61 74 78 70 74 51 39 39 42 42 38 41
94 92 82 99 100 98 99 98 92 89 83 75 84 85 98 99 81 61 67 61 68 63 66 62 48 48 60 74 82 81 84 69 72 61 61 66 74 71 80 70 68 52 37 33 33 49 44
82 75 99 100 100 98 99 97 96 89 86 78 76 84 96 97 89 68 72 68 56 61 67 65 58 71 62 93 87 83 75 64 77 73 78 86 90 80 95 79 72 51 34 32 44 48 49
74 99 100 100 99 99 97 95 96 88 85 87 75 67 97 94 83 86 78 69 62 60 73 72 75 86 96 83 91 85 91 79 74 64 74 78 90 88 88 80 75 43 39 43 47 50 54
100 100 100 99 100 98 99 98 97 92 92 87 74 60 83 98 94 88 80 70 76 52 56 71 62 85 81 87 94 94 90 93 74 78 62 63 69 77 70 72 52 47 39 38 49 54 53

GFSGBSN_925_rhum_030.txt.gz
RH
93 81 82 83 85 88 91 90 93 91 87 74 68 83 91 96 90 98 98 96 94 88 75 64 54 52 49 25 13 20 25 25 26 30 17 16 17 17 18 17 17 18 15 14 15 18 36
91 96 93 80 81 83 86 88 88 90 92 89 85 68 64 87 95 97 94 96 94 95 86 76 64 52 50 25 26 33 34 37 26 24 19 17 17 18 19 19 19 17 17 18 19 26 36
90 79 83 96 85 80 83 83 87 89 91 92 89 84 68 74 93 87 89 92 89 92 93 84 70 77 51 25 30 44 41 30 27 20 17 16 17 18 19 19 18 18 21 20 22 32 33
92 92 85 79 89 95 80 81 81 86 91 92 92 87 76 63 86 84 86 80 83 90 92 76 77 77 39 26 28 43 34 28 29 24 22 19 20 20 21 18 18 18 17 21 25 28 32
84 87 90 82 75 77 89 85 80 81 85 90 91 93 86 66 73 85 89 81 83 87 83 80 86 66 28 30 27 22 34 23 24 24 22 20 20 21 20 17 16 17 19 21 23 24 29
86 82 85 83 83 74 77 87 90 78 80 84 87 89 89 76 74 91 82 77 86 79 89 92 74 59 31 16 18 26 25 26 22 22 22 21 21 20 17 16 19 18 18 17 23 24 26
84 83 85 79 79 82 86 78 86 91 76 80 85 85 87 84 81 96 86 74 54 56 73 41 32 29 15 19 32 27 29 24 21 23 27 25 24 20 14 15 18 20 18 17 16 20 25
88 86 82 85 85 83 82 84 76 87 87 76 80 84 87 87 74 99 99 62 55 61 56 38 40 34 30 27 27 24 28 23 27 27 22 25 25 15 17 18 20 22 19 19 17 18 21
90 91 90 86 85 86 86 81 77 82 91 82 78 81 84 85 68 99 85 70 70 71 70 39 40 35 31 32 26 20 23 22 24 24 24 23 18 20 20 22 23 22 19 21 20 20 19
89 86 83 85 85 83 84 87 69 64 75 91 75 80 83 85 81 83 75 75 76 76 53 25 36 34 34 26 29 17 21 19 22 23 22 22 18 21 20 20 20 23 18 20 22 22 21
90 88 89 94 91 86 81 83 85 67 55 79 91 79 83 85 98 79 67 84 87 74 32 19 39 34 33 25 20 24 20 20 21 22 24 21 20 22 22 18 18 19 20 21 21 21 24
90 92 93 90 94 95 89 77 84 81 57 79 76 83 86 92 89 89 85 88 80 66 40 22 38 46 44 33 21 21 23 18 15 18 20 16 17 18 16 19 19 21 23 24 24 24 30
92 91 92 95 95 95 97 93 80 85 72 55 78 88 82 84 69 80 99 81 76 63 23 20 38 40 34 30 24 21 23 25 23 27 26 19 19 17 20 20 22 21 22 28 30 33 32
94 93 92 93 94 94 98 95 90 83 81 60 72 76 86 78 74 88 94 96 61 22 27 29 30 34 35 22 22 24 22 24 18 17 20 23 25 19 19 19 21 23 19 28 39 36 25
100 99 99 99 95 96 100 99 94 88 86 70 71 78 94 85 75 92 96 90 32 26 25 29 27 36 36 25 21 24 23 21 20 18 21 24 21 19 22 21 20 26 26 19 32 46 33
99 99 99 100 97 98 97 100 99 93 89 78 84 90 91 84 85 94 97 67 28 25 26 24 28 26 31 30 23 25 26 21 20 17 15 21 24 21 27 26 25 24 21 30 30 41 38
100 99 95 96 100 99 100 97 99 96 93 87 83 95 81 86 84 97 95 60 33 25 30 39 31 25 27 33 24 25 24 25 20 21 16 16 20 32 32 30 22 29 27 27 26 30 31
100 96 82 80 99 100 100 98 100 100 98 96 80 97 75 84 93 82 93 52 34 28 35 41 39 35 38 29 30 25 25 22 21 17 25 19 22 27 22 24 24 20 20 25 33 32 36
99 84 84 80 83 100 99 100 100 100 99 92 91 96 86 66 88 88 52 51 40 36 35 47 42 40 43 41 37 29 24 26 28 22 20 24 27 32 24 27 28 26 25 23 28 33 30
82 83 79 83 72 88 99 100 100 100 98 82 96 98 98 88 48 56 45 46 49 39 34 37 41 41 48 48 41 38 32 35 34 21 39 28 21 25 30 21 18 29 24 25 26 34 28
95 92 92 91 90 75 88 98 100 100 99 79 96 90 79 96 74 46 43 43 53 46 38 35 43 41 46 52 43 44 37 46 37 50 26 26 25 23 18 16 16 18 18 21 24 23 26
90 96 95 95 93 92 87 99 100 100 99 88 96 79 70 67 59 48 49 41 50 39 32 44 46 43 40 47 36 53 44 41 41 40 32 30 27 28 29 20 22 23 18 17 19 18 18
98 96 95 97 95 93 93 85 100 100 99 92 87 53 56 51 63 57 54 44 41 40 33 29 30 38 42 45 40 49 51 45 41 43 41 38 34 36 33 35 34 47 32 22 21 19 22
98 100 99 96 98 92 95 90 99 100 96 76 67 58 76 64 59 56 47 43 42 39 40 33 34 46 46 38 44 45 41 51 49 43 39 47 43 44 41 66 79 24 26 21 22 19 21
95 93 97 98 97 94 95 93 91 98 96 70 67 66 64 76 54 48 52 44 38 37 39 35 46 37 42 47 49 50 58 64 56 51 49 42 43 50 72 47 29 28 29 29 30 25 19
97 94 98 98 95 95 95 83 98 100 97 76 67 62 58 60 56 47 58 53 52 49 49 41 40 48 56 65 64 64 64 40 50 59 51 50 50 52 60 50 63 27 20 22 24 31 17
84 97 94 91 95 96 91 74 100 100 97 76 74 67 58 59 52 50 65 72 43 39 48 48 56 59 54 75 93 74 54 34 40 69 80 65 61 68 56 57 35 26 24 24 37 32 22
93 92 85 96 95 92 91 81 100 100 96 76 78 73 60 62 68 74 64 60 44 40 56 47 57 62 75 80 72 69 83 63 42 37 60 57 63 73 54 75 64 29 29 31 26 31 27
90 87 89 93 98 88 83 97 100 100 99 86 81 80 74 61 89 83 78 87 71 33 38 56 41 45 52 58 59 53 96 94 47 64 52 62 47 48 43 38 31 30 24 25 28 25 32

GFSGBSN_925_rhum_033.txt.gz
RH
92 93 98 93 81 79 80 83 85 86 87 90 87 85 64 61 78 91 92 87 90 92 94 91 81 60 53 27 16 29 26 21 22 25 14 10 12 14 14 11 12 13 12 11 12 13 23
93 85 79 87 94 94 78 79 81 84 86 86 90 89 86 66 59 87 92 87 89 86 95 91 86 73 47 33 17 31 32 28 19 18 15 13 14 13 16 14 14 14 13 13 12 16 22
84 90 85 76 75 79 94 87 77 78 83 87 92 88 89 85 57 71 89 86 86 83 92 90 83 69 42 29 18 25 28 21 17 17 14 14 14 15 15 15 13 14 15 14 14 17 20
84 87 87 85 78 74 74 78 92 79 79 81 87 86 89 89 75 56 81 83 84 84 83 85 72 64 39 21 17 24 27 19 18 17 16 15 15 16 17 14 14 14 13 22 23 18 20
87 90 86 85 82 80 73 72 74 85 84 76 81 85 87 89 84 59 72 83 81 82 84 80 72 56 31 26 19 19 25 16 17 16 17 16 15 17 16 17 14 13 16 31 28 15 20
83 84 86 88 82 74 77 72 72 74 82 84 77 80 83 86 85 68 77 79 74 87 83 73 56 49 31 17 14 12 26 19 16 16 16 17 17 18 15 14 18 16 14 15 24 20 18
88 86 86 83 76 86 85 86 84 73 78 81 84 76 79 84 86 75 88 58 53 59 52 28 28 19 13 14 20 14 22 22 18 19 23 20 22 21 15 12 11 16 15 15 18 22 17
86 91 92 90 85 78 84 86 84 73 69 84 89 80 82 80 84 80 96 49 34 52 37 22 25 24 22 19 21 14 17 25 24 25 20 21 24 16 12 11 13 15 15 14 15 14 15
88 87 90 93 92 88 81 86 85 81 68 70 76 89 82 85 84 79 77 44 50 54 46 24 19 22 18 20 20 15 18 19 21 22 19 21 16 13 14 14 16 15 16 18 16 16 13
87 89 89 92 90 88 87 78 79 85 77 64 80 79 86 86 82 49 55 48 50 63 46 18 27 26 21 19 23 13 16 17 17 20 18 18 15 16 15 15 14 17 13 17 16 17 21
88 88 88 90 91 90 87 90 79 73 79 62 64 72 90 80 66 64 48 53 62 67 32 12 17 22 18 23 11 17 12 16 19 18 17 20 18 18 18 15 14 16 17 16 17 18 18
89 89 89 89 89 91 94 89 87 81 76 66 64 78 85 89 81 75 85 82 70 52 34 17 27 32 33 25 13 13 15 15 14 16 16 17 12 13 14 13 14 14 18 18 18 20 29
89 91 92 91 91 90 92 95 92 84 81 74 65 76 77 82 62 56 76 97 64 41 10 14 25 29 30 28 20 16 20 23 22 26 24 19 16 13 13 17 16 17 20 28 32 32 32
95 94 91 90 91 93 92 94 95 90 83 84 70 74 82 86 70 60 84 98 48 20 16 19 16 26 33 22 25 21 23 22 18 17 21 23 25 16 15 16 18 19 18 27 58 58 33
93 96 96 96 93 94 93 94 96 95 86 84 78 77 76 76 86 67 96 96 50 20 11 15 20 30 30 22 21 21 21 20 17 15 21 21 19 12 13 14 14 19 23 15 22 26 33
96 92 97 96 97 96 95 93 97 98 91 84 94 70 62 75 86 68 97 82 45 21 11 13 22 23 29 26 22 21 22 15 16 13 15 16 21 14 15 15 16 19 17 26 25 51 45
98 99 99 98 100 97 98 99 98 100 95 89 96 92 55 78 86 93 93 68 38 24 14 13 21 23 23 25 22 20 21 16 14 13 14 17 19 18 20 22 19 22 24 23 21 24 39
100 95 91 96 94 99 99 100 100 100 98 100 93 97 56 81 98 90 84 58 32 24 16 20 25 27 21 21 28 20 21 17 14 13 19 18 19 27 23 16 13 16 20 21 34 34 33
94 94 88 92 100 95 96 100 99 100 100 97 96 87 68 74 96 92 61 46 32 23 26 24 26 32 29 24 27 26 20 15 19 19 19 19 23 34 25 18 18 21 22 23 24 24 44
93 93 92 72 80 91 89 88 97 100 100 97 98 98 96 92 67 60 54 47 41 26 20 22 22 26 27 38 29 29 26 22 19 19 33 28 21 25 33 22 18 23 19 18 22 40 34
90 90 93 92 80 84 91 84 91 100 100 96 98 87 85 95 89 58 42 39 36 29 19 22 25 35 34 28 27 31 30 28 32 31 27 24 32 26 20 16 14 15 17 18 21 22 31
92 92 92 93 93 89 88 83 80 99 100 95 100 80 72 65 69 57 52 42 33 26 22 29 30 32 49 52 34 50 38 40 30 27 29 26 32 25 22 16 14 16 14 14 16 17 18
93 94 94 96 93 94 92 90 78 96 99 96 94 51 49 53 74 59 54 44 34 26 23 23 23 26 30 31 39 57 53 55 47 42 37 30 38 37 38 20 19 32 20 17 15 13 15
97 96 96 98 96 96 96 96 92 89 100 87 85 46 68 65 81 55 44 37 34 26 25 20 21 27 28 31 35 39 50 42 60 45 37 39 39 42 43 59 59 26 17 16 18 15 14
88 97 99 95 99 98 99 98 92 89 100 90 69 52 66 81 58 51 42 37 30 26 30 26 21 20 22 34 45 49 72 64 60 45 38 42 47 52 59 47 28 20 19 21 20 19 14
84 96 93 93 99 98 98 97 96 84 88 88 72 51 60 64 63 39 41 36 38 33 44 31 26 34 40 48 48 45 39 33 61 61 38 38 51 58 52 52 54 28 18 15 15 29 14
83 90 99 94 98 100 97 99 90 83 95 88 86 55 59 64 54 48 50 45 31 34 43 55 59 58 44 68 82 50 44 23 43 92 80 69 70 76 63 51 34 19 15 15 36 29 15
85 85 96 98 93 100 98 97 94 75 100 94 78 64 62 71 60 68 51 41 36 39 54 44 51 62 66 66 51 39 58 39 34 29 69 67 65 72 58 60 65 18 21 26 22 18 20
99 96 97 100 99 96 98 90 83 91 98 92 71 68 69 74 87 65 67 58 40 28 36 42 47 51 41 43 44 37 67 78 39 46 34 60 55 48 38 38 29 24 22 20 16 19 22

GFSGBSN_925_rhum_039.txt.gz
RH
87 85 87 92 95 95 93 94 86 86 81 80 83 87 90 94 91 90 87 71 55 67 84 86 83 82 67 60 42 25 22 20 16 13 24 25 17 15 17 18 19 12 12 12 14 13 18
94 92 92 84 78 86 92 93 83 72 77 82 80 79 84 89 90 92 89 84 72 56 71 80 88 88 83 77 23 25 23 21 17 15 19 21 16 13 18 19 22 16 16 15 14 14 20
91 91 88 84 84 79 72 71 74 76 74 70 75 79 79 81 85 88 87 86 78 67 58 71 90 99 87 66 11 32 30 29 20 18 19 15 14 16 20 24 20 20 21 17 16 14 29
90 92 91 85 79 84 86 77 67 69 74 75 71 70 76 76 78 81 82 83 78 68 56 75 87 98 85 24 17 30 23 22 24 17 16 14 14 18 19 20 21 22 20 24 17 30 33
86 88 87 84 79 78 72 76 79 75 70 69 70 73 70 80 73 76 76 79 48 26 57 74 96 89 81 31 32 18 20 23 23 19 15 14 15 20 23 26 31 26 30 23 19 20 40
86 88 88 84 82 81 79 77 78 73 72 72 67 66 69 72 78 73 75 72 8 40 66 93 85 76 57 29 22 21 18 17 23 20 19 21 22 28 28 30 40 32 24 23 25 25 37
92 94 94 91 87 85 94 92 88 86 83 81 76 69 66 67 76 70 74 67 61 89 81 71 58 43 27 24 21 19 20 17 23 22 29 25 32 36 29 25 22 20 20 21 23 23 33
95 95 95 95 94 93 94 92 88 86 83 82 78 75 70 63 74 74 78 82 61 54 74 47 51 47 41 36 34 22 14 23 31 32 25 29 34 26 21 20 21 21 22 19 17 21 24
84 82 95 95 95 94 96 91 86 85 81 82 81 79 74 67 78 78 71 71 34 42 72 45 36 28 23 18 28 27 16 18 32 33 27 32 28 21 22 23 23 21 21 18 20 21 19
86 85 89 96 95 87 82 82 82 79 81 81 80 83 79 73 83 71 70 63 71 63 94 42 20 20 17 16 24 17 19 20 30 32 28 30 23 23 23 25 20 23 15 17 19 23 34
87 86 86 81 84 85 85 83 82 81 80 80 82 82 80 67 79 85 68 63 67 61 55 19 14 10 13 20 21 22 17 21 30 32 29 31 27 27 26 22 18 21 19 21 22 29 26
84 85 86 82 85 83 84 86 87 86 83 83 81 83 81 81 71 65 60 55 72 92 90 22 23 26 25 19 20 18 20 20 18 28 26 26 20 20 21 19 18 16 21 21 24 30 48
86 86 86 84 84 85 82 84 87 90 86 84 82 83 86 73 75 68 76 77 94 88 12 10 27 25 28 30 24 24 27 28 31 34 36 27 24 19 17 23 19 20 24 42 45 52 56
89 86 86 86 84 86 89 85 86 88 90 85 82 79 90 84 62 66 79 96 99 35 30 13 14 26 35 29 31 30 29 33 25 27 35 37 39 22 18 21 24 23 26 55 48 68 52
87 87 86 88 85 86 86 88 87 88 89 83 82 89 99 79 68 73 98 97 63 44 21 18 15 21 22 32 31 31 32 33 28 23 33 37 32 18 16 16 17 22 30 24 38 55 64
85 84 86 86 86 89 86 86 87 89 88 86 99 99 92 69 74 78 96 80 63 42 27 25 26 21 22 24 34 38 36 26 28 20 21 28 37 23 19 16 18 20 20 34 44 68 68
87 88 88 89 86 86 86 86 87 88 87 87 100 99 83 67 85 96 96 81 55 40 36 42 33 26 23 28 25 24 37 26 22 22 20 23 30 33 24 23 22 25 26 30 38 53 65
87 91 92 93 87 88 86 86 85 88 86 98 95 99 83 77 98 95 89 71 54 38 38 41 36 34 36 31 30 28 52 42 39 31 27 23 33 38 30 24 18 21 24 28 65 53 54
92 94 95 97 91 91 90 91 88 91 92 98 97 97 82 75 96 95 72 71 62 61 46 40 40 33 32 34 37 58 55 47 54 59 46 26 31 40 35 24 22 23 23 24 31 50 53
95 99 97 92 91 91 88 89 90 92 90 100 98 99 99 93 66 72 75 73 75 53 60 46 40 36 36 40 32 54 59 50 60 61 70 55 28 33 41 32 30 32 30 25 28 59 53
99 97 93 91 97 92 94 95 90 92 94 100 99 98 86 95 94 77 64 59 68 72 50 46 46 44 42 45 38 46 51 62 52 64 67 62 47 29 24 26 27 28 29 30 28 32 44
99 99 100 92 90 87 94 94 84 84 97 98 99 99 88 68 77 82 71 69 62 54 50 50 45 39 39 44 37 40 54 74 76 76 76 64 60 42 42 25 25 29 30 29 25 26 33
100 99 92 90 87 80 83 84 80 78 91 95 95 91 71 75 81 94 81 71 64 56 48 41 40 42 44 41 40 62 64 70 81 73 85 88 78 50 48 37 34 48 35 27 27 24 23
96 84 84 84 85 86 84 82 80 76 93 94 96 91 96 96 82 86 70 66 63 56 56 42 39 42 34 38 69 75 79 80 81 84 79 92 95 75 71 60 68 35 25 25 27 23 20
86 89 90 92 96 98 97 91 84 73 95 98 97 98 97 97 81 69 71 64 58 53 54 48 42 34 28 49 68 70 93 82 82 77 86 81 98 97 76 58 52 45 27 27 28 27 21
95 100 100 98 100 100 99 98 96 86 81 98 99 93 96 97 95 54 64 60 65 64 61 55 40 38 35 51 74 77 87 77 68 74 68 88 92 100 96 69 72 47 33 22 21 40 20
99 90 90 95 92 94 96 100 100 98 90 94 90 93 94 100 85 62 60 61 50 56 62 52 52 54 45 75 81 84 83 63 79 82 98 98 99 98 95 95 70 37 26 22 40 43 27
87 89 89 91 96 94 94 95 97 99 91 96 89 96 89 97 88 67 58 55 49 52 66 58 62 61 72 80 84 87 94 78 61 59 80 88 95 98 99 92 82 54 34 35 38 32 29
94 84 88 87 98 99 95 92 96 100 100 95 96 95 78 95 96 65 60 50 41 40 50 56 52 56 72 73 76 81 80 76 50 58 59 91 75 90 87 89 64 47 54 58 50 44 38